AEE316 LGAV-LGIR

Flight info

Callsign AEE316
Flight time 0h 37m
Altitude 25000
Route KEA UL607 GIVIS T514 XAVIS
Aircraft A320/M-SDE3FGHIRWY/LB1

Departure

Time 2026-05-05 07:34
Airport Athens Eleftherios Venizelos International Airport (LGAV)

Arrival

Time 2026-05-05 08:11
Airport Heraklion International Nikos Kazantzakis Airport (LGIR)
Time Latitude Longitude Altitude Speed Heading
2026-05-05 07:30 37.92767 23.94445 302 ft 14 kts 211°
2026-05-05 07:31 37.92683 23.94363 303 ft 16 kts 215°
2026-05-05 07:31 37.92586 23.94276 303 ft 18 kts 216°
2026-05-05 07:31 37.92487 23.94180 303 ft 12 kts 219°
2026-05-05 07:31 37.92421 23.94179 305 ft 11 kts 136°
2026-05-05 07:32 37.92411 23.94273 306 ft 10 kts 88°
2026-05-05 07:32 37.92415 23.94361 310 ft 10 kts 80°
2026-05-05 07:32 37.92448 23.94418 309 ft 1 kts 36°
2026-05-05 07:32 37.92449 23.94418 309 ft 1 kts 36°
2026-05-05 07:33 37.92622 23.94582 305 ft 68 kts 37°
2026-05-05 07:33 37.92953 23.94897 301 ft 110 kts 37°
2026-05-05 07:33 37.93705 23.95611 280 ft 158 kts 37°
2026-05-05 07:33 37.94638 23.96497 718 ft 167 kts 37°
2026-05-05 07:34 37.95560 23.97388 1436 ft 166 kts 37°
2026-05-05 07:34 37.96525 23.98308 1873 ft 184 kts 37°
2026-05-05 07:34 37.97592 23.99336 2225 ft 203 kts 37°
2026-05-05 07:34 37.98776 24.00474 2580 ft 226 kts 35°
2026-05-05 07:35 38.00092 24.01724 3131 ft 243 kts 34°
2026-05-05 07:35 38.01438 24.03001 4155 ft 241 kts 35°
2026-05-05 07:35 38.02783 24.04298 5086 ft 244 kts 36°
2026-05-05 07:35 38.04124 24.05603 6087 ft 242 kts 36°
2026-05-05 07:36 38.05464 24.06904 7022 ft 244 kts 36°
2026-05-05 07:36 38.06811 24.08209 7982 ft 244 kts 36°
2026-05-05 07:36 38.08101 24.09611 8849 ft 247 kts 48°
2026-05-05 07:36 38.08928 24.11549 9654 ft 256 kts 70°
2026-05-05 07:37 38.09091 24.13891 10171 ft 282 kts 93°
2026-05-05 07:37 38.08483 24.16392 10449 ft 313 kts 111°
2026-05-05 07:37 38.07207 24.18782 10657 ft 343 kts 130°
2026-05-05 07:37 38.05248 24.20646 11125 ft 361 kts 151°
2026-05-05 07:38 38.02834 24.21618 11759 ft 370 kts 170°
2026-05-05 07:38 38.00271 24.22100 12447 ft 374 kts 171°
2026-05-05 07:38 37.97683 24.22557 13130 ft 377 kts 172°
2026-05-05 07:38 37.95072 24.23004 13794 ft 380 kts 172°
2026-05-05 07:39 37.92437 24.23453 14483 ft 383 kts 172°
2026-05-05 07:39 37.89794 24.23908 15152 ft 385 kts 172°
2026-05-05 07:39 37.87135 24.24372 15784 ft 387 kts 172°
2026-05-05 07:39 37.84457 24.24841 16390 ft 390 kts 172°
2026-05-05 07:40 37.81761 24.25316 16999 ft 392 kts 172°
2026-05-05 07:40 37.79053 24.25792 17598 ft 394 kts 173°
2026-05-05 07:40 37.76360 24.26262 18171 ft 397 kts 173°
2026-05-05 07:40 37.73611 24.26745 18750 ft 400 kts 173°
2026-05-05 07:41 37.70841 24.27232 19313 ft 404 kts 173°
2026-05-05 07:41 37.68050 24.27723 19865 ft 407 kts 173°
2026-05-05 07:41 37.65236 24.28214 20404 ft 410 kts 173°
2026-05-05 07:41 37.62401 24.28705 20925 ft 413 kts 173°
2026-05-05 07:42 37.59541 24.29200 21418 ft 416 kts 173°
2026-05-05 07:42 37.56699 24.29967 21890 ft 420 kts 163°
2026-05-05 07:42 37.53973 24.31338 22333 ft 424 kts 153°
2026-05-05 07:42 37.51426 24.33239 22765 ft 427 kts 148°
2026-05-05 07:43 37.48902 24.35242 23199 ft 430 kts 148°
2026-05-05 07:43 37.46364 24.37247 23613 ft 433 kts 148°
2026-05-05 07:43 37.43795 24.39267 24036 ft 436 kts 148°
2026-05-05 07:43 37.41213 24.41289 24458 ft 439 kts 148°
2026-05-05 07:44 37.38609 24.43321 24874 ft 441 kts 148°
2026-05-05 07:44 37.35993 24.45360 25071 ft 443 kts 148°
2026-05-05 07:44 37.33359 24.47416 25111 ft 447 kts 148°
2026-05-05 07:44 37.30712 24.49484 25111 ft 449 kts 148°
2026-05-05 07:45 37.28058 24.51556 25110 ft 449 kts 148°
2026-05-05 07:45 37.25403 24.53629 25109 ft 449 kts 148°
2026-05-05 07:45 37.22750 24.55703 25111 ft 449 kts 148°
2026-05-05 07:45 37.20099 24.57778 25110 ft 449 kts 148°
2026-05-05 07:46 37.17445 24.59852 25110 ft 449 kts 148°
2026-05-05 07:46 37.14789 24.61922 25109 ft 450 kts 148°
2026-05-05 07:46 37.12133 24.63982 25110 ft 449 kts 148°
2026-05-05 07:46 37.09508 24.66018 25109 ft 449 kts 148°
2026-05-05 07:47 37.06851 24.68083 25109 ft 450 kts 148°
2026-05-05 07:47 37.04158 24.70174 25110 ft 450 kts 148°
2026-05-05 07:47 37.01499 24.72233 25109 ft 450 kts 148°
2026-05-05 07:47 36.98873 24.74261 25110 ft 450 kts 148°
2026-05-05 07:48 36.96211 24.76317 25111 ft 450 kts 148°
2026-05-05 07:48 36.93550 24.78373 25111 ft 450 kts 148°
2026-05-05 07:48 36.90889 24.80433 25111 ft 450 kts 148°
2026-05-05 07:48 36.88231 24.82493 25110 ft 450 kts 148°
2026-05-05 07:49 36.85573 24.84551 25111 ft 450 kts 148°
2026-05-05 07:49 36.82914 24.86609 25111 ft 450 kts 148°
2026-05-05 07:49 36.80255 24.88665 25112 ft 449 kts 148°
2026-05-05 07:49 36.77596 24.90716 25112 ft 449 kts 148°
2026-05-05 07:50 36.74940 24.92766 25110 ft 449 kts 148°
2026-05-05 07:50 36.72281 24.94816 25108 ft 449 kts 148°
2026-05-05 07:50 36.69624 24.96859 25107 ft 449 kts 148°
2026-05-05 07:50 36.66961 24.98907 25107 ft 450 kts 148°
2026-05-05 07:51 36.64298 25.00951 25106 ft 450 kts 148°
2026-05-05 07:51 36.61636 25.02994 25106 ft 450 kts 148°
2026-05-05 07:51 36.58973 25.05038 25104 ft 450 kts 148°
2026-05-05 07:51 36.56307 25.07080 25103 ft 450 kts 148°
2026-05-05 07:52 36.53638 25.09117 25103 ft 450 kts 148°
2026-05-05 07:52 36.50965 25.11151 25105 ft 450 kts 148°
2026-05-05 07:52 36.48294 25.13185 25108 ft 451 kts 148°
2026-05-05 07:52 36.45624 25.15218 25108 ft 450 kts 148°
2026-05-05 07:53 36.42950 25.17251 25109 ft 451 kts 148°
2026-05-05 07:53 36.40278 25.19283 25108 ft 451 kts 148°
2026-05-05 07:53 36.37606 25.21319 25107 ft 451 kts 148°
2026-05-05 07:53 36.34935 25.23354 25070 ft 448 kts 148°
2026-05-05 07:54 36.32313 25.25345 24818 ft 438 kts 148°
2026-05-05 07:54 36.29728 25.27303 24419 ft 433 kts 148°
2026-05-05 07:54 36.27170 25.29241 23845 ft 430 kts 148°
2026-05-05 07:54 36.24622 25.31174 23300 ft 427 kts 148°
2026-05-05 07:55 36.22103 25.33085 22772 ft 424 kts 148°
2026-05-05 07:55 36.19594 25.34986 22249 ft 421 kts 148°
2026-05-05 07:55 36.17100 25.36872 21734 ft 419 kts 148°
2026-05-05 07:55 36.14626 25.38743 21251 ft 415 kts 148°
2026-05-05 07:56 36.12110 25.40457 20774 ft 411 kts 156°
2026-05-05 07:56 36.09440 25.41666 20281 ft 407 kts 162°
2026-05-05 07:56 36.06756 25.42743 19789 ft 404 kts 162°
2026-05-05 07:56 36.04096 25.43811 19288 ft 401 kts 162°
2026-05-05 07:57 36.01447 25.44877 18782 ft 398 kts 162°
2026-05-05 07:57 35.98827 25.45933 18256 ft 395 kts 162°
2026-05-05 07:57 35.96218 25.46979 17740 ft 393 kts 162°
2026-05-05 07:57 35.93629 25.48016 17206 ft 390 kts 163°
2026-05-05 07:58 35.91050 25.49050 16688 ft 388 kts 162°
2026-05-05 07:58 35.88486 25.50082 16157 ft 387 kts 162°
2026-05-05 07:58 35.85931 25.51109 15631 ft 385 kts 162°
2026-05-05 07:58 35.83395 25.52128 15101 ft 383 kts 162°
2026-05-05 07:59 35.80865 25.53142 14580 ft 381 kts 162°
2026-05-05 07:59 35.78348 25.54148 14043 ft 379 kts 162°
2026-05-05 07:59 35.75844 25.55150 13525 ft 377 kts 162°
2026-05-05 07:59 35.73351 25.56145 12991 ft 376 kts 162°
2026-05-05 08:00 35.70879 25.57171 12466 ft 374 kts 158°
2026-05-05 08:00 35.68587 25.58650 11941 ft 372 kts 145°
2026-05-05 08:00 35.66544 25.60590 11421 ft 370 kts 139°
2026-05-05 08:00 35.64544 25.62576 10897 ft 369 kts 139°
2026-05-05 08:01 35.62547 25.64527 10553 ft 362 kts 142°
2026-05-05 08:01 35.60326 25.65833 10432 ft 351 kts 169°
2026-05-05 08:01 35.57964 25.65777 10304 ft 334 kts 199°
2026-05-05 08:01 35.56026 25.64445 10179 ft 312 kts 230°
2026-05-05 08:02 35.54905 25.62299 10051 ft 293 kts 251°
2026-05-05 08:02 35.54042 25.59997 9624 ft 302 kts 249°
2026-05-05 08:02 35.53108 25.57704 9348 ft 299 kts 248°
2026-05-05 08:02 35.52144 25.55460 8766 ft 297 kts 247°
2026-05-05 08:03 35.51181 25.53264 8142 ft 295 kts 246°
2026-05-05 08:03 35.50197 25.51027 7514 ft 292 kts 246°
2026-05-05 08:03 35.49237 25.48841 6929 ft 290 kts 246°
2026-05-05 08:03 35.48289 25.46673 6357 ft 289 kts 246°
2026-05-05 08:04 35.47347 25.44524 5927 ft 283 kts 246°
2026-05-05 08:04 35.46391 25.42454 5380 ft 285 kts 237°
2026-05-05 08:04 35.44850 25.40959 5202 ft 287 kts 203°
2026-05-05 08:04 35.42916 25.40722 5045 ft 277 kts 167°
2026-05-05 08:05 35.41222 25.41636 4914 ft 258 kts 149°
2026-05-05 08:05 35.39690 25.42699 4785 ft 249 kts 149°
2026-05-05 08:05 35.38184 25.43616 4640 ft 234 kts 166°
2026-05-05 08:05 35.36634 25.43587 4553 ft 218 kts 203°
2026-05-05 08:06 35.35437 25.42618 4263 ft 201 kts 236°
2026-05-05 08:06 35.34789 25.41169 3975 ft 190 kts 251°
2026-05-05 08:06 35.34240 25.39738 3713 ft 182 kts 251°
2026-05-05 08:06 35.33704 25.38359 3450 ft 179 kts 250°
2026-05-05 08:07 35.33168 25.36967 3189 ft 183 kts 251°
2026-05-05 08:07 35.32814 25.35491 2921 ft 179 kts 270°
2026-05-05 08:07 35.32866 25.34004 2694 ft 172 kts 279°
2026-05-05 08:07 35.32972 25.32557 2466 ft 169 kts 278°
2026-05-05 08:08 35.33072 25.31123 2244 ft 170 kts 278°
2026-05-05 08:08 35.33173 25.29664 2015 ft 173 kts 277°
2026-05-05 08:08 35.33276 25.28192 1758 ft 172 kts 277°
2026-05-05 08:08 35.33373 25.26777 1494 ft 161 kts 277°
2026-05-05 08:09 35.33460 25.25492 1270 ft 142 kts 277°
2026-05-05 08:09 35.33539 25.24327 1046 ft 134 kts 277°
2026-05-05 08:09 35.33619 25.23208 838 ft 131 kts 277°
2026-05-05 08:09 35.33695 25.22103 639 ft 130 kts 277°
2026-05-05 08:10 35.33766 25.21001 439 ft 129 kts 276°
2026-05-05 08:10 35.33840 25.19906 254 ft 129 kts 277°
2026-05-05 08:10 35.33921 25.18808 100 ft 128 kts 276°
2026-05-05 08:10 35.33988 25.17865 94 ft 90 kts 274°
2026-05-05 08:11 35.34025 25.17312 90 ft 38 kts 275°
2026-05-05 08:11 35.34003 25.17129 91 ft 17 kts 243°
2026-05-05 08:11 35.33950 25.17053 90 ft 6 kts 159°
2026-05-05 08:11 35.33939 25.17113 90 ft 10 kts 95°
2026-05-05 08:12 35.33932 25.17208 90 ft 13 kts 95°
2026-05-05 08:12 35.33925 25.17324 91 ft 14 kts 94°
2026-05-05 08:12 35.33884 25.17377 91 ft 9 kts 182°
2026-05-05 08:12 35.33816 25.17369 91 ft 11 kts 185°
2026-05-05 08:13 35.33777 25.17323 91 ft 8 kts 267°
2026-05-05 08:13 35.33778 25.17298 91 ft 2 kts 273°
2026-05-05 08:13 35.33778 25.17295 93 ft 0 kts 273°